This is the latest recevied weather packets stored in our database for station/object IT9FBN-3. If no packets are shown the sender has not sent any weather packets the latest 10 day(s).
| Time | Temp. | Humidity | Pressure | Rain* | Wind** | Luminosity | Snow |
|---|---|---|---|---|---|---|---|
| 1777476302 | 22.78° C | 40% | 1015.7 hPa | 0 mm | - | - | - |
| 1777476002 | 22.78° C | 41% | 1015.8 hPa | 0 mm | - | - | - |
| 1777475701 | 22.22° C | 40% | 1015.8 hPa | 0 mm | - | - | - |
| 1777475402 | 22.22° C | 41% | 1015.8 hPa | 0 mm | - | - | - |
| 1777475102 | 22.22° C | 41% | 1015.8 hPa | 0 mm | - | - | - |
| 1777474801 | 21.67° C | 41% | 1016.1 hPa | 0 mm | - | - | - |
| 1777474502 | 21.67° C | 41% | 1016.1 hPa | 0 mm | - | - | - |
| 1777474202 | 21.67° C | 43% | 1016.2 hPa | 0 mm | - | - | - |
| 1777473901 | 21.67° C | 43% | 1016.3 hPa | 0 mm | - | - | - |
| 1777473602 | 21.11° C | 45% | 1016.2 hPa | 0 mm | - | - | - |
| 1777473301 | 21.11° C | 46% | 1016.2 hPa | 0 mm | - | - | - |
| 1777473002 | 21.11° C | 46% | 1016.3 hPa | 0 mm | - | - | - |
| 1777472702 | 21.11° C | 44% | 1016.4 hPa | 0 mm | - | - | - |
| 1777472401 | 21.67° C | 43% | 1016.6 hPa | 0 mm | - | - | - |
| 1777472101 | 22.22° C | 42% | 1016.5 hPa | 0 mm | - | - | - |
| 1777471802 | 22.22° C | 43% | 1016.4 hPa | 0 mm | - | - | - |
| 1777471502 | 22.22° C | 40% | 1016.4 hPa | 0 mm | - | - | - |
| 1777471202 | 22.22° C | 40% | 1016.5 hPa | 0 mm | - | - | - |
| 1777470902 | 22.22° C | 41% | 1016.6 hPa | 0 mm | - | - | - |
| 1777470601 | 22.22° C | 41% | 1016.5 hPa | 0 mm | - | - | - |
| 1777470301 | 22.22° C | 40% | 1016.6 hPa | 0 mm | - | - | - |
| 1777470001 | 22.78° C | 38% | 1016.5 hPa | 0 mm | - | - | - |
| 1777469702 | 22.78° C | 35% | 1016.5 hPa | 0 mm | - | - | - |
| 1777469402 | 22.78° C | 36% | 1016.5 hPa | 0 mm | - | - | - |
| 1777469102 | 22.78° C | 36% | 1016.6 hPa | 0 mm | - | - | - |
* Rain latest hour (hover to see other rain measurements)
** Current wind speed in m/s (hover to see current wind gust speed)